RH
84 82 81 78 66 60 59 64 78 97 98 97 85 84 90 94 92 90 90 91 94 97 96 93 90 88 89 87 89 90 94 94 100 98 97 84 84 95
87 90 88 83 74 66 60 57 62 66 89 79 83 72 74 87 89 92 92 92 92 91 93 97 94 93 93 88 87 92 90 93 97 99 99 98 97 100
91 94 92 87 82 75 67 60 56 55 71 70 72 74 68 74 78 80 73 87 93 88 87 88 86 84 83 94 97 94 97 91 91 92 96 98 99 100
91 92 90 92 87 80 75 71 65 63 60 64 63 74 68 67 64 65 63 67 69 70 73 74 74 68 67 82 95 94 99 99 99 98 88 94 99 100
86 90 91 92 92 86 78 76 72 66 63 63 63 63 66 66 68 69 68 66 65 65 69 77 76 73 76 76 77 80 86 90 89 93 95 89 99 100
88 88 89 92 88 87 82 78 74 74 69 72 70 69 68 69 67 66 74 69 71 73 73 74 76 71 76 76 74 75 78 80 85 89 95 94 99 98
98 94 87 89 90 86 90 85 81 79 80 81 82 81 75 78 76 73 75 74 74 75 75 73 70 78 73 70 70 76 75 72 67 75 98 99 100 100
96 97 94 88 76 84 90 89 79 85 86 81 84 87 86 81 75 75 78 83 85 76 76 74 73 75 73 73 70 67 65 63 65 70 90 90 96 100
98 99 100 99 94 94 90 87 83 80 76 79 83 88 86 86 86 88 91 86 82 77 79 79 79 75 77 84 72 72 66 65 66 83 95 92 99 100
100 100 100 100 99 100 96 100 95 91 92 97 87 87 84 85 89 92 93 94 90 85 84 89 80 78 73 75 76 70 69 68 71 79 86 98 100 100
100 100 100 100 98 97 100 100 100 100 99 96 97 94 90 93 96 99 96 95 98 94 90 89 86 84 83 78 73 73 71 73 85 92 91 95 99 100
100 100 100 99 100 98 100 100 100 100 99 100 100 100 100 100 97 94 96 100 98 100 93 97 91 90 83 78 76 78 78 81 89 97 99 99 100 100
100 100 100 98 99 100 100 100 97 93 96 98 100 100 100 100 100 100 99 98 99 95 88 96 92 91 86 89 82 80 78 84 90 99 98 100 100 100
99 100 100 99 99 97 100 98 98 99 99 100 100 100 100 100 99 99 100 100 100 99 95 91 89 90 91 94 90 89 87 85 90 99 100 99 100 100
98 98 98 100 100 99 98 100 100 100 100 100 100 99 98 99 100 100 100 100 100 100 100 100 98 93 93 92 90 92 91 88 91 98 100 100 99 99
100 100 100 100 99 98 100 100 100 100 99 99 99 99 100 100 100 100 100 100 100 100 100 100 100 100 100 100 99 96 95 91 91 96 100 100 100 100
100 100 100 100 100 100 100 100 100 100 100 100 100 100 100 100 100 100 100 100 99 100 100 100 100 100 100 100 100 100 98 96 93 95 100 99 99 99
99 100 100 100 100 100 100 100 100 100 100 100 100 100 100 100 100 100 100 100 100 100 100 100 100 100 100 100 100 99 99 96 95 92 90 96 93 95
96 98 100 100 100 100 100 100 100 100 100 100 100 100 100 100 100 100 100 100 100 100 100 100 100 100 99 99 97 98 100 97 94 97 96 96 87 53
98 98 99 100 100 100 100 100 100 100 100 100 100 100 100 99 100 99 100 99 99 100 100 100 100 99 98 98 96 88 88 99 100 97 96 93 83 72
97 98 98 97 98 98 99 99 99 99 100 100 100 100 100 100 100 99 99 99 99 99 98 98 98 98 98 98 99 94 86 76 76 87 74 64 66 58
98 97 97 96 97 98 98 98 98 98 98 98 99 99 99 99 99 99 99 99 99 98 98 98 98 98 98 97 97 97 96 94 90 86 79 80 61 54
96 96 96 96 96 97 97 97 97 97 98 98 98 98 98 98 98 98 98 98 98 98 98 98 97 97 97 97 97 96 95 95 94 90 85 82 65 56
Wind_Speed
38 40 40 35 40 31 28 26 16 5 7 18 13 37 36 34 33 32 31 31 32 34 34 31 30 28 26 25 25 26 28 27 29 27 24 22 21 19
38 36 37 36 42 39 30 28 28 20 4 23 26 15 33 35 33 32 32 32 32 32 32 33 31 32 32 30 29 26 26 28 32 29 30 28 27 24
36 35 38 36 38 41 39 31 28 24 12 17 21 23 22 29 30 29 26 29 31 32 31 30 30 31 33 33 34 32 32 29 28 31 32 32 32 28
39 36 39 34 36 41 42 40 37 31 24 17 23 26 24 26 26 26 24 24 25 26 27 28 26 26 26 31 33 34 33 33 32 30 30 31 37 33
40 39 39 36 35 33 38 37 40 37 32 24 24 22 28 26 26 27 27 27 27 26 25 26 25 25 25 25 26 28 30 32 31 32 31 30 28 30
40 38 38 40 40 37 37 39 38 36 35 28 21 22 25 26 26 30 31 32 33 31 29 29 28 25 26 27 27 27 27 27 31 32 31 30 27 25
41 41 41 40 40 40 37 35 35 33 29 24 19 18 22 18 26 25 28 30 33 34 32 32 31 28 27 27 27 27 27 27 27 28 29 27 27 27
38 38 39 44 47 47 46 42 46 37 29 27 25 19 25 28 29 29 26 21 10 30 32 34 33 32 29 27 27 26 25 25 25 24 25 25 25 25
38 38 38 41 47 47 46 44 42 43 41 37 29 26 27 33 30 27 27 25 21 20 15 26 30 31 29 26 25 24 25 25 23 22 23 24 25 25
41 39 39 37 45 42 42 40 40 39 39 36 37 35 36 30 28 30 29 27 26 24 23 16 20 21 21 19 21 23 22 20 20 21 22 23 24 24
39 38 40 38 42 45 39 35 33 37 37 34 35 32 31 25 22 20 18 18 12 17 24 21 17 19 20 20 20 21 20 20 19 19 19 20 21 24
37 37 43 39 42 42 41 34 30 30 33 32 31 32 31 25 24 24 25 20 11 8 19 20 19 14 5 15 18 20 21 22 21 18 17 18 20 23
32 31 36 42 41 38 38 37 34 31 32 32 31 34 32 29 29 27 28 29 24 17 11 25 16 16 10 3 7 9 11 13 16 16 16 17 18 21
32 32 35 40 37 32 35 34 31 29 28 29 28 29 31 33 32 29 29 28 27 27 20 18 11 19 13 8 7 9 12 13 14 16 17 19 20 22
35 38 39 38 36 32 31 30 28 30 29 28 29 30 31 30 27 28 27 26 25 22 20 21 23 18 17 11 6 11 8 10 13 14 16 18 21 23
32 35 36 37 35 31 28 27 30 32 32 31 30 28 26 24 26 29 27 24 21 17 17 19 20 19 17 17 14 11 11 6 9 15 16 18 20 22
28 25 24 22 24 27 27 28 29 28 28 28 27 26 25 25 26 28 26 25 14 17 16 14 14 14 14 13 13 14 12 13 12 10 13 16 19 21
26 21 17 15 14 19 24 24 24 26 27 27 26 28 28 27 27 25 21 23 18 16 17 15 13 10 7 7 11 9 11 13 13 12 14 14 18 17
32 22 23 21 20 17 13 14 15 16 18 20 22 24 25 23 22 20 17 17 13 14 13 13 13 9 3 2 2 9 13 12 12 13 15 16 16 10
30 28 27 25 24 23 21 19 18 17 17 16 17 17 20 21 20 18 16 15 14 11 10 11 11 11 6 3 3 3 7 12 12 13 14 14 16 18
29 31 32 30 27 29 25 24 23 22 21 20 18 17 15 17 16 14 13 11 12 9 9 7 5 6 8 6 3 3 6 6 7 9 7 10 13 11
28 30 32 32 30 31 29 27 27 26 24 21 19 17 15 14 14 12 11 11 8 7 7 6 5 6 6 6 4 3 4 6 8 9 10 11 8 3
29 28 29 28 27 27 25 24 24 23 23 21 20 17 15 15 12 10 9 8 7 6 5 5 5 4 3 2 3 4 6 8 7 8 10 11 14 16
Wind_Direction
210 205 211 210 213 213 210 198 168 174 209 212 205 223 224 225 226 227 230 233 233 235 241 244 242 247 248 255 255 252 248 240 235 230 236 244 246 237
211 208 210 210 216 214 214 214 206 192 194 209 215 217 220 223 228 231 236 239 237 239 244 247 248 250 254 251 254 254 257 253 249 246 240 239 242 236
208 208 210 209 211 215 215 215 211 211 195 211 222 215 217 218 223 229 236 236 237 238 245 248 252 254 256 255 254 256 256 258 258 254 253 248 240 231
205 206 210 209 210 216 217 217 220 223 219 200 209 211 215 218 222 223 225 227 231 236 239 241 246 251 254 253 253 257 259 258 258 259 259 258 247 233
204 205 209 206 207 210 216 215 221 225 220 216 210 208 216 221 220 226 230 234 238 240 240 242 246 254 257 257 257 258 260 258 257 259 264 268 268 254
204 207 209 206 208 209 212 216 214 214 216 215 211 209 215 221 222 226 231 234 239 242 242 243 247 253 261 259 257 257 260 260 255 255 255 259 259 248
207 208 209 207 207 211 208 207 209 207 205 204 208 201 213 212 219 226 235 243 244 243 244 243 245 255 258 257 259 259 261 262 263 257 252 255 255 248
200 203 206 210 217 216 218 220 218 207 200 202 211 211 217 224 231 229 233 233 250 251 242 249 247 254 256 258 259 261 261 262 263 254 245 252 252 253
203 203 206 211 216 215 219 221 221 224 222 215 212 216 222 227 228 235 231 230 228 239 230 241 251 249 257 261 254 257 260 261 257 252 243 246 249 247
208 206 205 205 211 210 213 214 214 220 225 225 229 231 238 236 241 245 240 241 245 247 243 224 240 245 249 245 253 254 254 256 255 251 245 240 244 246
205 203 204 205 216 219 208 209 215 222 229 229 234 238 241 237 236 229 225 214 221 231 230 224 232 235 243 245 246 251 256 254 251 248 243 239 238 240
199 199 205 208 215 221 208 202 201 206 220 221 225 231 235 234 233 235 233 211 201 209 229 209 219 210 222 239 242 246 249 249 249 246 239 236 234 231
191 191 199 211 214 215 208 205 206 216 221 223 224 225 228 227 227 231 234 232 219 220 219 207 208 208 212 211 232 228 242 246 242 237 235 236 231 232
186 191 201 206 211 209 207 214 220 221 219 217 218 217 224 229 234 233 230 225 231 239 232 213 211 208 200 202 226 240 243 245 241 235 228 228 231 236
182 189 203 201 204 201 202 207 212 214 215 213 214 221 227 232 231 224 219 219 222 227 226 219 219 220 216 214 212 227 234 243 238 231 224 217 212 214
192 200 206 197 198 204 203 208 214 216 217 215 220 223 220 215 214 210 198 197 198 197 205 213 219 226 225 226 231 231 230 216 236 229 226 222 220 224
171 172 168 180 180 188 199 203 209 211 212 215 214 211 206 203 202 200 203 194 188 196 195 201 210 215 220 229 225 232 233 236 243 241 233 234 235 238
83 77 83 121 136 165 179 184 197 203 210 213 210 202 195 192 192 190 197 193 187 186 184 183 183 175 194 223 229 236 232 239 237 238 237 240 252 249
64 54 58 62 73 86 115 152 149 175 188 190 195 190 187 184 179 180 181 179 170 170 179 175 178 172 140 174 205 232 237 243 238 232 236 240 254 259
55 56 53 48 60 71 81 92 108 121 132 146 153 160 162 164 162 161 169 163 165 160 160 176 183 189 176 180 185 209 226 238 240 246 249 253 261 270
44 50 54 51 53 67 69 80 88 94 103 107 112 123 133 140 140 141 145 151 152 148 165 175 190 196 205 215 209 225 243 248 249 254 267 262 268 274
45 50 56 61 59 66 70 72 74 76 81 87 92 96 102 111 117 125 134 140 136 138 129 138 157 184 189 215 243 255 282 277 267 261 260 255 263 282
48 52 57 61 61 63 66 68 70 71 74 76 77 80 88 92 100 107 113 114 119 124 135 141 154 184 210 243 289 302 291 290 290 289 282 276 272 271